www.pogodaiklimat.ru

Погода и климат >> Архив погоды >> Казахстан >> Костанай


АРХИВ ПОГОДЫ в Костанае

Время (UTC), дата Ветер
(напр.,м/с)
 
Видим.   Явления Облачность Т
(С)
Тd
(С)
f
(%)
Тe
(С)
Тes
(С)
Комфортность P
(гПа)
Po
(гПа)
Тmin
(С)
Tmax
(С)
R
(мм)
R24
(мм)
S
(см)
18 10.09 З 1 н/о {ливн. осадки} 4/4 600 м
[Sc]
+10.9 +4.5 65 +11 +11 по сезону 1028.0 1009.5 +18.3 0.0
21 10.09 штиль 0 н/о 3/3 600 м
[Sc]
+6.1 +1.1 70 +5 +5 прохладно 1028.9 1010.1
00 11.09 штиль 0 н/о 4/3 600 м
[Sc Ci fib]
+5.2 +0.8 73 +4 +4 прохладно 1029.5 1010.6
03 11.09 штиль 0 4000 м дымка 8/8 600 м
[Sc]
+7.8 +5.3 84 +7 +7 прохладно 1030.4 1011.7
06 11.09 З 3 50 км 6/0
[Ci]
+15.7 +9.8 68 +15 +21 по сезону 1030.5 1012.3 +5.2
09 11.09 СЗ 3 50 км 6/3 1000 м
[Cu med, cong Ci fib]
+19.6 +9.4 52 +21 +25 комфорт 1030.1 1012.3
12 11.09 СЗ 3 50 км 8/6 600 м
[Cu Sc Ac trans]
+20.4 +9.5 50 +22 +23 комфорт 1030.2 1012.2
15 11.09 СЗ 2 н/о 9/9 600 м
[Sc]
+16.8 +9.3 61 +17 +17 тепло 1031.0 1012.8 +20.4
18 11.09 СЗ 1 н/о 9/9 600 м
[Sc]
+13.1 +8.1 72 +13 +13 тепло 1031.5 1013.1 +20.4
21 11.09 СЗ 1 н/о 9/9 600 м
[Sc]
+13.3 +8.2 71 +14 +14 тепло 1031.1 1012.7
00 12.09 штиль 0 н/о 9/9 600 м
[Sc]
+13.0 +8.8 76 +13 +13 тепло 1030.7 1012.3
03 12.09 штиль 0 50 км 8/8 1000 м
[Sc]
+13.5 +8.9 74 +13 +13 тепло 1030.5 1012.1
06 12.09 З 3 50 км 3/0
[Ci fib]
+19.6 +11.2 58 +21 +27 комфорт 1029.2 1011.2 +13.0
09 12.09 З 4 50 км 3/3 1000 м
[Cu med, cong]
+21.6 +9.3 45 +23 +27 комфорт 1027.1 1009.2
12 12.09 З 4 50 км ясно +21.6 +7.8 41 +23 +24 комфорт 1025.4 1007.5
15 12.09 З 2 н/о ясно +17.7 +7.4 51 +18 +18 тепло 1024.9 1006.9 +22.3
18 12.09 З 1 н/о ясно +14.5 +8.5 67 +15 +15 тепло 1025.2 1006.9 +22.3
21 12.09 штиль 0 н/о ясно +13.4 +9.7 78 +13 +13 тепло 1024.7 1006.4
00 13.09 штиль 0 н/о ясно +12.1 +9.3 83 +12 +12 тепло 1024.8 1006.4
03 13.09 СЗ 1 20 км 4/0
[Ac lent Ci fib]
+12.0 +8.8 81 +12 +13 по сезону 1025.1 1006.7
06 13.09 З 1 50 км 9/0
[Ci]
+18.7 +12.6 68 +21 +27 комфорт 1024.3 1006.4 +10.2
09 13.09 З 4 50 км 8/8 1000 м
[Cu med, cong]
+21.9 +12.8 56 +24 +26 комфорт 1023.4 1005.6
12 13.09 З 3 50 км 9/4 1000 м
[Cu med, cong Ac trans]
+22.9 +11.8 50 +25 +26 комфорт 1022.1 1004.5
15 13.09 штиль 0 н/о 8/0
[Ac lent Ci]
+18.9 +10.2 57 +20 +20 тепло 1021.7 1003.8 +22.9
18 13.09 штиль 0 н/о 6/0
[Ci fib]
+13.8 +7.7 67 +14 +14 тепло 1022.1 1003.8 +22.9
21 13.09 штиль 0 н/о 3/0
[Ci fib]
+11.4 +7.0 74 +11 +11 тепло 1021.9 1003.5
00 14.09 штиль 0 н/о 3/0
[Ci fib]
+10.4 +6.8 78 +10 +10 тепло 1021.4 1002.9
03 14.09 штиль 0 50 км 3/0
[Ci fib]
+12.1 +7.4 73 +12 +13 по сезону 1021.2 1002.8
06 14.09 Ю 1 50 км 1/0
[Ci fib]
+21.1 +13.2 61 +23 +31 комфорт 1020.3 1002.5 +8.8
09 14.09 Ю 3 50 км 6/4 1000 м
[Cu hum Ci fib]
+24.8 +13.1 48 +27 +30 жарко 1018.6 1001.2
12 14.09 Ю 3 50 км 3/3 1000 м
[Cu hum]
+24.3 +9.9 40 +25 +26 комфорт 1017.9 1000.3
15 14.09 Ю 1 н/о ясно +16.3 +5.8 50 +17 +17 тепло 1018.1 1000.2 +25.1
18 14.09 Ю 1 н/о ясно +13.9 +6.4 61 +14 +14 тепло 1018.0 999.9 +25.1
21 14.09 Ю 1 н/о ясно +11.7 +6.2 69 +12 +12 тепло 1017.8 999.5
00 15.09 Ю 1 н/о ясно +8.5 +4.9 78 +8 +8 по сезону 1017.9 999.4
03 15.09 штиль 0 20 км ясно +11.6 +7.4 75 +11 +12 по сезону 1017.6 999.3
06 15.09 Ю 2 50 км ясно +21.5 +12.9 58 +24 +31 комфорт 1017.0 999.3 +7.8
09 15.09 Ю 3 50 км 6/6 1000 м
[Cu med, cong]
+24.8 +10.4 40 +26 +28 жарко 1015.6 998.2
12 15.09 Ю 2 50 км 4/4 1000 м
[Cu med, cong]
+25.3 +10.6 40 +26 +27 жарко 1014.6 997.2
15 15.09 Ю 1 н/о 1/0
[Ac lent]
+18.1 +7.4 50 +19 +19 тепло 1014.3 996.5 +26.0
18 15.09 Ю 1 н/о 3/0
[Ac lent]
+14.7 +6.4 57 +15 +15 тепло 1014.2 996.1 +26.0
21 15.09 Ю 1 н/о 4/4 600 м
[Sc Ac lent]
+12.2 +5.6 64 +12 +12 тепло 1013.0 994.8
00 16.09 Ю 2 н/о 9/6 600 м
[Sc Ac lent]
+14.5 +8.4 67 +14 +14 тепло 1011.3 993.2
03 16.09 Ю 2 50 км 9/3 600 м
[Sc Ac trans Ci fib]
+14.3 +6.1 58 +14 +14 тепло 1010.4 992.3
06 16.09 Ю 4 50 км 9/5 1000 м
[Cu med, cong Ac trans Ci fib]
+20.1 +8.0 46 +21 +23 комфорт 1008.5 990.9 +11.5
09 16.09 Ю 5 50 км 9/5 1000 м
[Cu med, cong Ac trans Ci fib]
+24.4 +8.1 35 +25 +26 комфорт 1006.1 988.7
12 16.09 З 6 50 км 9/8 1000 м
[Cu med, cong Ac trans]
+18.5 +7.0 47 +18 +18 тепло 1007.5 989.8
15 16.09 З 2 н/о 3/3 600 м
[Sc]
+13.3 +6.4 63 +13 +13 по сезону 1008.2 990.2 +24.4
18 16.09 З 1 н/о 6/0
[Ci]
+10.4 +6.8 78 +10 +10 по сезону 1009.6 991.4 +24.4
21 16.09 Ю 3 н/о 6/0
[Ac trans Ci fib]
+10.8 +7.0 77 +9 +9 по сезону 1009.9 991.7
00 17.09 Ю 2 н/о в посл. час ливневой дождь 10/10 600 м
[Cb cap]
+11.3 +7.1 75 +10 +10 тепло 1009.9 991.8
03 17.09 Ю 3 50 км 9/8 600 м
[Sc Ac trans]
+11.4 +6.8 73 +10 +10 по сезону 1009.8 991.7
06 17.09 Ю 7 50 км 9/9 600 м
[Cu Sc]
+15.4 +7.4 59 +14 +14 по сезону 1009.2 991.3 +9.7 0.0
09 17.09 Ю 6 50 км 9/4 1000 м
[Cu med, cong Ac trans]
+18.8 +7.1 46 +19 +20 тепло 1008.1 990.4
12 17.09 ЮЗ 7
{16}
50 км 9/6 1000 м
[Cu med, cong Ac trans]
+20.0 +4.8 37 +20 +20 тепло 1007.7 990.1
15 17.09 ЮЗ 3 н/о 8/6 1000 м
[Sc Ac trans]
+18.1 +4.5 41 +18 +18 тепло 1007.9 990.2 +20.0

 

Местоположение метеостанции Костанай (Костанайская область, Казахстан): широта 53.22 долгота 63.62 высота над уровнем моря 156 м.

В архиве по умолчанию представлена погода в Костанае за последнюю неделю. Архивные данные за месяц целиком и за предыдущие месяцы, начиная с января 2011 года, Вы можете получить, выбрав интересующий диапазон дат из раскрывающегося списка и нажав кнопку "Ввод!".


*Определитесь, кто Вы:
робот инопланетянин человек

Внимание! Время в таблицах - всемирное. Для получения местного времени необходимо прибавить поправку, которая равна 6 ч.

Смотрите также архив погоды в соседних городах и на ближайших метеорологических станциях:

Погода в Костанае 2 (Костанайская область, Казахстан) (3 км)
Погода в Рудном (Костанайская область, Казахстан) (43 км)
Погода в Тоболе (Костанайская область, Казахстан) (91 км)
Погода в Кусмурыне (Костанайская область, Казахстан) (109 км)
Погода в Карабалыке (Костанайская область, Казахстан) (118 км)
Погода в Сарыколе (Костанайская область, Казахстан) (129 км)
Погода в Михайловке (Костанайская область, Казахстан) (136 км)
Погода в Диевской (Костанайская область, Казахстан) (136 км)
Погода в Карасу (Костанайская область, Казахстан) (140 км)
Погода в Целинном (Курганская область, Россия) (142 км)

Пояснения к столбцам:

Ветер - указаны скорость ветра в м/с - средняя за 10 мин, порывы в срок и между сроками (в фигурных скобках) и направление, откуда дует ветер: С - северный, СВ - северо-восточный, В - восточный, ЮВ - юго-восточный, Ю - южный, ЮЗ - юго-западный, З - западный, СЗ - северо-западный.
Видимость - горизонтальная дальность видимости в метрах или километрах. При видимости от 1 до 10 км при отсутствии осадков обычно наблюдается дымка, при ухудшении видимости до 1 км и менее - туман. В сухую погоду видимость может ухудшаться дымом, пылью или мглою.
Явления - указаны атмосферные явления, наблюдавшиеся в срок или в последний час перед сроком; фигурными скобками обозначены явления, наблюдавшиеся между сроками (за 1-3 часа до срока); квадратными скобками обозначены град или гололедные отложения с указанием их диаметра в мм.
Облачность - указаны через наклонную черту общая и нижняя облачность в баллах и высота нижней границы облаков в метрах; квадратными скобками обозначены формы облаков: Ci - перистые, Cs - перисто-слоистые, Cc - перисто-кучевые, Ac - высококучевые, As - высокослоистые, Sc - слоисто-кучевые, Ns - слоисто-дождевые, Cu - кучевые, Cb - кучево-дождевые. Подробнее классификацию облаков см. в Атласе облаков (PDF).
T - Температура воздуха - температура, измеренная на высоте 2 м над землей.
Td - Температура точки росы - температура, при понижении до которой содержащийся в воздухе водяной пар достигнет насыщения.
f - Относительная влажность воздуха - влажноcть воздуха, измеренная на высоте 2 м над землей.
Te - Эффективная температура - температура, которую ощущает одетый по сезону человек в тени. Характеристика душности погоды. При расчете учитывается влияние влажности воздуха и скорости ветра на теплоощущения человека.
Tes - Эффективная температура на солнце - температура, которую ощущает человек, с поправкой на солнечный нагрев. Характеристика знойности погоды. Зависит от высоты солнца над горизонтом, облачности и скорости ветра. Ночью, в пасмурную погоду, а также при ветре 12 м/с и более поправка равна нулю.
P - Атмосферное давление - приведенное к уровню моря атмосферное давление.
Po - Атмосферное давление - измеренное на уровне метеостанции атмосферное давление.
Tmin - Минимальная температура - минимум температуры воздуха на высоте 2 м над землей.
Tmax - Максимальная температура - максимум температуры воздуха на высоте 2 м над землей.
R - Количество осадков - Количество выпавших осадков за период времени, мм. При наведении курсора мыши на число - период времени, за который выпало указанное количество осадков.
R24 - Количество осадков - Количество выпавших осадков за 24 часа, мм.
S - Снежный покров - Высота снежного покрова, см. При наведении курсора мыши на число - состояние снежного покрова и степень покрытия местности в баллах.